[[{"header":{"parameterUnit":"m.s-1","parameterCategory":1,"la1":30.2991,"la2":30.254,"lo1":-89.0895,"lo2":-89.0444,"dy":0.0017,"dx":0.0017,"nx":28,"ny":28,"refTime":"2024-12-22T03:00:00:Z","depth":0,"parameterNumber":2,"parameterNumberName":"U-component_of_WINDS"},"data":[0,0,0,0,0,0,0,0,0,0,0,0,0,0,0,0,0,0,0,0,0,0,0,0,0,0,0,0,0,0,0,0,0,0,0,0,0,0,0,0,0,0,0,0,0,0,0,0,0,0,0,0,0,0,0,0,0,0,-1.2956,-1.2956,0,-1.2937,-1.2937,-1.2937,-1.2899,-1.2898,-1.2897,-1.2896,-1.2879,-1.2879,-1.2879,0,0,0,0,0,0,0,0,0,0,0,0,0,-1.2959,-1.296,-1.2956,-1.2956,-1.2955,-1.2937,-1.2937,-1.2937,-1.2899,-1.2898,-1.2897,-1.2896,-1.2879,-1.2879,-1.288,0,0,0,0,0,0,0,0,0,0,0,0,0,-1.2951,-1.296,-1.2956,-1.2934,-1.2932,-1.2937,-1.2937,-1.2937,-1.2899,-1.2898,-1.2897,-1.2896,-1.2879,-1.2879,-1.288,-1.2905,0,0,-1.2881,-1.2881,0,0,0,0,0,0,0,0,-1.2952,-1.2951,-1.2938,-1.2936,-1.2933,-1.2919,-1.2932,-1.2926,-1.2899,-1.2912,-1.2896,-1.2895,-1.2893,-1.2892,-1.2892,-1.2904,-1.2903,-1.2881,-1.2881,-1.2881,-1.2881,0,0,0,0,0,0,0,-1.2952,-1.2952,-1.2949,-1.2937,-1.2935,-1.2926,-1.2923,-1.2931,-1.2909,-1.291,-1.2908,-1.2906,-1.2892,-1.2891,-1.2891,-1.2903,-1.2881,-1.2881,-1.2881,-1.2881,-1.2936,-1.2938,0,0,0,0,0,0,-1.2956,-1.2952,-1.2949,-1.2948,-1.294,-1.2927,-1.2924,-1.2925,-1.2909,-1.2905,-1.2907,-1.2904,-1.2891,-1.2891,-1.289,-1.292,-1.2881,-1.2881,-1.2882,-1.2935,-1.2937,-1.2938,0,0,0,0,0,0,-1.2956,-1.2956,-1.295,-1.2949,-1.2948,-1.2928,-1.2929,-1.2925,-1.2924,-1.2906,-1.2902,-1.291,-1.289,-1.289,-1.2902,-1.2918,-1.2882,-1.2882,-1.2934,-1.2936,-1.2937,-1.2978,0,0,0,0,0,0,-1.2956,-1.2956,-1.2965,-1.295,-1.2948,-1.2961,-1.293,-1.2926,-1.2925,-1.2921,-1.2908,-1.2905,-1.2889,-1.2901,-1.2902,-1.2918,-1.2882,-1.2932,-1.2935,-1.2937,-1.2975,-1.2981,-1.2986,0,0,0,0,0,-1.2957,-1.2978,-1.2966,-1.2966,-1.2959,-1.2962,-1.2961,-1.2943,-1.2926,-1.2936,-1.2924,-1.2905,-1.2916,-1.2903,-1.2903,-1.292,-1.2931,-1.2934,-1.2937,-1.2973,-1.298,-1.2986,0,0,0,0,0,0,-1.2996,-1.2975,-1.2962,-1.2979,-1.2973,-1.2956,-1.2967,-1.2951,-1.2949,-1.2946,-1.2923,-1.292,-1.2936,-1.2929,-1.2914,-1.2944,-1.2921,-1.2924,-1.2948,-1.2955,-1.296,-1.2962,-1.2883,0,0,0,0,0,-1.3007,-1.3011,-1.2993,-1.3009,-1.3007,-1.2988,-1.2988,-1.2974,-1.2967,-1.2964,-1.2954,-1.2948,-1.295,-1.2952,-1.2953,-1.2974,-1.2971,-1.2986,-1.2991,-1.2996,-1.2999,-1.301,-1.3017,-1.2947,-1.2947,-1.2947,0,0,-1.3029,-1.3018,-1.3022,-1.3017,-1.301,-1.3016,-1.2986,-1.2992,-1.2996,-1.2965,-1.2976,-1.2968,-1.296,-1.2977,-1.2984,-1.2972,-1.3017,-1.2999,-1.3003,-1.3004,-1.3014,-1.3021,-1.3027,-1.2949,-1.2949,-1.2948,0,0,-1.3073,-1.3064,-1.3077,-1.3072,-1.3062,-1.3049,-1.3052,-1.3038,-1.3031,-1.3042,-1.3019,-1.3023,-1.3027,-1.3023,-1.3021,-1.3062,-1.3046,-1.3063,-1.3093,-1.3104,-1.311,-1.3114,-1.313,-1.3136,-1.3066,-1.3066,-1.3066,0,-1.3102,-1.3108,-1.3086,-1.3095,-1.3093,-1.3065,-1.3079,-1.3074,-1.3066,-1.3066,-1.3052,-1.3056,-1.3049,-1.3065,-1.3075,-1.3074,-1.3078,-1.3065,-1.311,-1.3115,-1.3119,-1.3134,-1.314,-1.3069,-1.3068,-1.3068,-1.3068,0,-1.3145,-1.315,-1.3162,-1.3154,-1.3153,-1.3164,-1.3145,-1.3147,-1.3133,-1.3122,-1.3133,-1.3123,-1.3122,-1.3124,-1.3111,-1.3139,-1.3131,-1.3114,-1.3091,-1.3128,-1.3142,-1.3148,-1.3072,-1.3071,-1.307,-1.307,0,0,-1.3213,-1.3193,-1.3198,-1.3194,-1.3182,-1.3185,-1.3195,-1.3193,-1.3196,-1.3191,-1.32,-1.3203,-1.3187,-1.3186,-1.3171,-1.3181,-1.3216,-1.3163,-1.3162,-1.3174,-1.3247,-1.3261,-1.3268,-1.3204,-1.3205,-1.3206,-1.3248,0,-1.3255,-1.327,-1.3251,-1.3271,-1.3275,-1.3248,-1.3257,-1.3251,-1.324,-1.3243,-1.3232,-1.3235,-1.3214,-1.3212,-1.3221,-1.321,-1.323,-1.3206,-1.3212,-1.3213,-1.3216,-1.3274,-1.3289,-1.3329,-1.3253,-1.3254,-1.3254,0,-1.3305,-1.3302,-1.3323,-1.3309,-1.331,-1.3318,-1.3315,-1.3318,-1.331,-1.3302,-1.33,-1.3282,-1.3292,-1.3268,-1.3281,-1.3265,-1.3266,-1.3261,-1.3262,-1.3263,-1.3237,-1.3278,-1.3342,-1.3348,-1.3262,-1.3262,-1.3261,0,-1.3355,-1.3356,-1.3368,-1.3365,-1.3349,-1.3356,-1.335,-1.3341,-1.3341,-1.3338,-1.3339,-1.3337,-1.3337,-1.3337,-1.332,-1.3304,-1.3335,-1.331,-1.3329,-1.333,-1.3338,-1.3338,-1.3404,-1.3337,-1.3337,-1.3337,-1.3337,0,-1.3403,-1.3417,-1.339,-1.3398,-1.3413,-1.339,-1.3406,-1.3397,-1.3389,-1.3395,-1.3371,-1.3378,-1.3354,-1.3358,-1.3345,-1.3358,-1.3358,-1.3352,-1.3349,-1.3355,-1.3356,-1.3356,-1.3353,-1.3339,-1.3338,-1.3338,-1.3338,0,-1.3462,-1.3444,-1.3456,-1.3439,-1.3436,-1.3447,-1.3434,-1.3441,-1.3428,-1.3436,-1.3437,-1.3418,-1.3422,-1.3404,-1.3405,-1.3396,-1.3416,-1.3407,-1.3419,-1.3417,-1.3438,-1.3437,-1.3508,-1.3517,-1.3443,-1.3444,-1.3444,0,-1.3494,-1.3504,-1.3489,-1.3491,-1.3486,-1.349,-1.349,-1.3468,-1.3469,-1.3461,-1.347,-1.3471,-1.3471,-1.3478,-1.3465,-1.3465,-1.3457,-1.3481,-1.3457,-1.3463,-1.3458,-1.3459,-1.346,-1.3487,-1.3488,-1.3489,-1.3489,0,-1.3555,-1.3546,-1.3547,-1.3544,-1.3545,-1.3543,-1.3538,-1.3542,-1.3518,-1.3521,-1.3524,-1.3524,-1.3524,-1.3526,-1.3524,-1.3518,-1.3501,-1.3497,-1.3502,-1.3509,-1.3516,-1.3514,-1.3434,-1.3496,-1.3495,-1.3495,-1.3494,-1.3494,-1.3602,-1.361,-1.3601,-1.3603,-1.3597,-1.3594,-1.36,-1.3588,-1.359,-1.3588,-1.3575,-1.3581,-1.3573,-1.3568,-1.3564,-1.3569,-1.3557,-1.3564,-1.3566,-1.3568,-1.3572,-1.3514,-1.3568,-1.3568,-1.3568,-1.3567,-1.3567,0,-1.3663,-1.3655,-1.3657,-1.3652,-1.3654,-1.3636,-1.363,-1.3633,-1.3638,-1.3632,-1.3632,-1.3636,-1.3638,-1.3625,-1.3625,-1.3632,-1.3624,-1.3633,-1.3633,-1.3632,-1.3582,-1.3578,-1.3639,-1.3639,-1.3639,-1.3639,-1.3639,-1.3639,-1.3695,-1.3707,-1.3697,-1.3706,-1.3699,-1.3704,-1.3702,-1.37,-1.3695,-1.37,-1.3701,-1.3692,-1.3684,-1.3683,-1.3684,-1.368,-1.3682,-1.3694,-1.3688,-1.3642,-1.3635,-1.3628,-1.3625,-1.3694,-1.3694,-1.3737,-1.3737,-1.3738]},{"header":{"parameterUnit":"m.s-1","parameterCategory":1,"la1":30.2991,"la2":30.254,"lo1":-89.0895,"lo2":-89.0444,"dy":0.0017,"dx":0.0017,"nx":28,"ny":28,"refTime":"2024-12-22T03:00:00:Z","depth":0,"parameterNumber":3,"parameterNumberName":"V-component_of_WINDS"},"data":[0,0,0,0,0,0,0,0,0,0,0,0,0,0,0,0,0,0,0,0,0,0,0,0,0,0,0,0,0,0,0,0,0,0,0,0,0,0,0,0,0,0,0,0,0,0,0,0,0,0,0,0,0,0,0,0,0,0,-1.715,-1.715,0,-1.7191,-1.7192,-1.7192,-1.7191,-1.7191,-1.719,-1.7189,-1.723,-1.7231,-1.7233,0,0,0,0,0,0,0,0,0,0,0,0,0,-1.7068,-1.707,-1.715,-1.715,-1.7151,-1.7191,-1.7192,-1.7192,-1.7191,-1.719,-1.719,-1.7189,-1.7229,-1.7231,-1.7233,0,0,0,0,0,0,0,0,0,0,0,0,0,-1.7106,-1.707,-1.715,-1.7155,-1.7156,-1.7191,-1.7192,-1.7192,-1.7191,-1.719,-1.719,-1.7189,-1.7229,-1.7231,-1.7233,-1.7265,0,0,-1.724,-1.7241,0,0,0,0,0,0,0,0,-1.7104,-1.7109,-1.7154,-1.7155,-1.7156,-1.7185,-1.7178,-1.7217,-1.7192,-1.7178,-1.7189,-1.7188,-1.7215,-1.7219,-1.7228,-1.7266,-1.7268,-1.7241,-1.7242,-1.7243,-1.7244,0,0,0,0,0,0,0,-1.7101,-1.7107,-1.7166,-1.7155,-1.7156,-1.7155,-1.716,-1.7185,-1.7201,-1.7179,-1.7179,-1.7184,-1.7216,-1.7226,-1.7229,-1.7269,-1.7241,-1.7243,-1.7244,-1.7245,-1.7336,-1.7337,0,0,0,0,0,0,-1.7098,-1.7105,-1.7165,-1.7167,-1.7127,-1.7157,-1.7162,-1.7177,-1.72,-1.7203,-1.7185,-1.7184,-1.7222,-1.7226,-1.7231,-1.727,-1.7243,-1.7245,-1.7247,-1.7335,-1.7336,-1.7337,0,0,0,0,0,0,-1.7096,-1.7103,-1.7163,-1.7136,-1.7144,-1.716,-1.7176,-1.7178,-1.7188,-1.7205,-1.7207,-1.7193,-1.7222,-1.7227,-1.7257,-1.7272,-1.7246,-1.7249,-1.7334,-1.7335,-1.7337,-1.7349,0,0,0,0,0,0,-1.7094,-1.7102,-1.7115,-1.7137,-1.7145,-1.7189,-1.7177,-1.7179,-1.7193,-1.7192,-1.7213,-1.7215,-1.7222,-1.7253,-1.7259,-1.7275,-1.725,-1.7333,-1.7335,-1.7336,-1.7348,-1.7351,-1.7354,0,0,0,0,0,-1.7091,-1.7116,-1.7116,-1.7123,-1.7161,-1.719,-1.7195,-1.7202,-1.7194,-1.7206,-1.7217,-1.7215,-1.7269,-1.7256,-1.7263,-1.7279,-1.7332,-1.7334,-1.7336,-1.7346,-1.735,-1.7354,0,0,0,0,0,0,-1.7095,-1.7119,-1.7119,-1.7152,-1.7169,-1.719,-1.7206,-1.7206,-1.7225,-1.7224,-1.7231,-1.7236,-1.7265,-1.7275,-1.726,-1.7311,-1.7299,-1.7303,-1.7304,-1.7309,-1.7312,-1.7309,-1.7252,0,0,0,0,0,-1.71,-1.7122,-1.7141,-1.7168,-1.7177,-1.719,-1.7203,-1.7207,-1.7224,-1.7231,-1.7244,-1.7261,-1.7282,-1.7295,-1.7315,-1.7348,-1.7353,-1.7363,-1.7366,-1.7369,-1.7372,-1.7392,-1.7396,-1.7345,-1.7345,-1.7345,0,0,-1.711,-1.7126,-1.7139,-1.717,-1.7183,-1.7206,-1.7196,-1.7219,-1.7236,-1.7235,-1.7264,-1.7274,-1.7293,-1.7325,-1.7339,-1.7334,-1.7387,-1.7371,-1.7373,-1.7376,-1.7394,-1.7399,-1.7404,-1.7346,-1.7346,-1.7346,0,0,-1.714,-1.7154,-1.7179,-1.7193,-1.7215,-1.7223,-1.7229,-1.725,-1.7257,-1.7286,-1.7286,-1.7305,-1.7341,-1.7355,-1.7367,-1.7403,-1.7402,-1.7409,-1.7426,-1.7444,-1.7449,-1.7452,-1.7467,-1.7471,-1.7412,-1.7412,-1.7412,0,-1.715,-1.7184,-1.7192,-1.7216,-1.723,-1.723,-1.7256,-1.7269,-1.7295,-1.7305,-1.7298,-1.7343,-1.7356,-1.7392,-1.7401,-1.7409,-1.7417,-1.7407,-1.7447,-1.7451,-1.7455,-1.7469,-1.7474,-1.7413,-1.7413,-1.7412,-1.7412,0,-1.7196,-1.722,-1.7237,-1.7264,-1.728,-1.7304,-1.7315,-1.733,-1.7333,-1.7342,-1.7372,-1.7387,-1.7411,-1.7419,-1.7421,-1.7456,-1.7452,-1.7446,-1.7434,-1.7461,-1.7474,-1.7479,-1.7414,-1.7414,-1.7413,-1.7413,0,0,-1.7231,-1.7262,-1.7268,-1.7281,-1.7305,-1.7323,-1.7347,-1.7372,-1.7385,-1.7402,-1.7424,-1.7454,-1.7449,-1.7463,-1.7466,-1.7483,-1.7512,-1.7475,-1.7476,-1.7483,-1.7552,-1.7558,-1.7564,-1.7511,-1.7512,-1.7513,-1.7551,0,-1.7265,-1.731,-1.7318,-1.7357,-1.738,-1.738,-1.7402,-1.7418,-1.7427,-1.7447,-1.7457,-1.7479,-1.747,-1.7478,-1.7494,-1.7505,-1.7526,-1.7502,-1.7531,-1.7532,-1.7529,-1.757,-1.7576,-1.7611,-1.7556,-1.7557,-1.7558,0,-1.7311,-1.7332,-1.7374,-1.7396,-1.7405,-1.7425,-1.7448,-1.7467,-1.7485,-1.7491,-1.7506,-1.7508,-1.7534,-1.7519,-1.7555,-1.7538,-1.755,-1.7557,-1.7559,-1.7563,-1.7548,-1.7577,-1.7623,-1.7629,-1.7565,-1.7565,-1.7564,0,-1.7334,-1.7372,-1.7403,-1.7413,-1.7439,-1.7453,-1.7464,-1.7482,-1.7496,-1.7516,-1.7526,-1.7547,-1.756,-1.7577,-1.7585,-1.7573,-1.762,-1.7606,-1.7626,-1.7626,-1.7637,-1.7636,-1.7687,-1.7642,-1.7642,-1.7641,-1.7641,0,-1.7373,-1.7399,-1.7414,-1.7433,-1.7462,-1.747,-1.7499,-1.7509,-1.7525,-1.7546,-1.7547,-1.7566,-1.7575,-1.7595,-1.7601,-1.7631,-1.7635,-1.7641,-1.7642,-1.7642,-1.7641,-1.7651,-1.7649,-1.7643,-1.7643,-1.7642,-1.7642,0,-1.7404,-1.7415,-1.7449,-1.7471,-1.7477,-1.7498,-1.7516,-1.7534,-1.7543,-1.757,-1.7576,-1.759,-1.7614,-1.7623,-1.7652,-1.7656,-1.7691,-1.7689,-1.7685,-1.7686,-1.7706,-1.7704,-1.7765,-1.7774,-1.7722,-1.7722,-1.7723,0,-1.7429,-1.7449,-1.7474,-1.7488,-1.75,-1.7523,-1.7539,-1.7547,-1.7562,-1.7586,-1.7601,-1.7625,-1.7646,-1.7684,-1.7697,-1.7719,-1.7719,-1.7739,-1.7723,-1.7722,-1.7722,-1.7721,-1.7724,-1.7743,-1.7743,-1.7744,-1.7744,0,-1.7472,-1.7477,-1.7499,-1.7523,-1.7542,-1.7561,-1.7579,-1.7591,-1.7602,-1.7619,-1.7645,-1.7661,-1.7691,-1.7716,-1.7739,-1.775,-1.7749,-1.7749,-1.7755,-1.7756,-1.7753,-1.7756,-1.7695,-1.7748,-1.7747,-1.7747,-1.7747,-1.7747,-1.7502,-1.7521,-1.7542,-1.7566,-1.7581,-1.7599,-1.7618,-1.7629,-1.7651,-1.7678,-1.7681,-1.7708,-1.7727,-1.7758,-1.777,-1.7791,-1.7786,-1.7794,-1.7797,-1.7799,-1.7802,-1.7748,-1.7795,-1.7795,-1.7795,-1.7795,-1.7795,0,-1.7547,-1.756,-1.7583,-1.761,-1.763,-1.7628,-1.7648,-1.7665,-1.769,-1.7707,-1.7727,-1.7757,-1.7781,-1.7795,-1.7819,-1.7834,-1.7834,-1.784,-1.784,-1.7842,-1.7804,-1.7797,-1.7839,-1.7839,-1.7839,-1.7839,-1.7839,-1.7839,-1.7573,-1.7605,-1.7612,-1.7652,-1.7664,-1.7693,-1.7705,-1.7721,-1.7736,-1.7769,-1.779,-1.7799,-1.7815,-1.784,-1.7862,-1.7866,-1.7875,-1.7882,-1.7885,-1.7849,-1.7845,-1.7841,-1.7834,-1.7883,-1.7883,-1.7922,-1.7922,-1.7922]}]]